Location: ????????
(56.0167°N, 38.0333°E)
Time: 02:28:33
(UTC+00:00)

GP-B - Pass Details

Date: 19 May 2025
Orbit: 619 x 623 km, 89.8° (Epoch: 14 June)

Event Time Altitude Azimuth Distance (km) Brightness Sun altitude
Rises 21:30:01 0° 359° (N) 2,919 8.5 -14.0°
Reaches altitude 10° 21:32:15 10° 358° (N) 2,007 7.1 -14.0°
Maximum altitude 21:36:39 76° 274° (W) 648 3.1 -14.0°
Enters shadow 21:39:23 23° 191° (SSW) 1,345 4.2 -13.9°
